, AK

(GMT )
Tin City

Weather History for PATC - July, 2013

Change the Weather History Date:

Saturday, July 20, 2013

  Actual Average Record
Temperature  
Mean Temperature 45 °F -  
Max Temperature 46 °F 49 °F 64 °F (1998)
Min Temperature 44 °F 41 °F 37 °F (1999)
Degree Days  
Heating Degree Days 20    
Moisture  
Dew Point 45 °F    
Average Humidity 100    
Maximum Humidity 100    
Minimum Humidity 93    
Precipitation  
Precipitation 0.01 in - - ()
Sea Level Pressure  
Sea Level Pressure 30.09 in    
Wind  
Wind Speed 21 mph (SSW)    
Max Wind Speed 26 mph    
Max Gust Speed 32 mph    
Visibility 4 miles    
Events Fog , Rain    
Averages and records for this station are not official NWS values.
T = Trace of Precipitation, MM = Missing Value Source: NWS Daily Summary

Daily Weather History Graph

Daily Weather History Graph

Search for Another Location

Airport or City:

Trip Planner

Search our weather history database for the weather conditions in past years. The results will help you decide how hot, cold, wet, or windy it might be!

Date:

Astronomy

Jul. 20, 2013 Rise Set
Actual Time 5:19 AM AKDT 1:13 AM AKDT
Civil Twilight 3:50 AM AKDT 2:45 AM AKDT
Nautical Twilight Sun does not rise Sun does not rise
Astronomical Twilight Sun does not rise Sun does not rise
Moon 11:09 PM AKDT (7/20) 3:23 AM AKDT (7/20)
Length of Visible Light 22h 55m
Length of Day
19h 54m
Waxing Gibbous, 94% of the Moon is Illuminated
Jul 20
Waxing Gibbous
Jul 22
Full
Jul 29
Last Quarter
Aug 6
New
Aug 14
First Quarter

Hourly Weather History & Observations

Time (AKDT) Temp. Windchill Dew Point Humidity Pressure Visibility Wind Dir Wind Speed Gust Speed Precip Events Conditions
12:55 AM - - - N/A% 30.17 in 0.2 mi SSW 13.8 mph - N/A Rain Light Rain
2:55 AM 45.0 °F 36.9 °F 45.3 °F 100% 30.17 in 0.2 mi SW 20.7 mph - N/A Rain Light Rain
3:55 AM 44.6 °F 36.6 °F 44.8 °F 100% 30.16 in 0.2 mi SW 19.6 mph - N/A Rain Light Rain
6:55 AM - - - N/A% 30.15 in 0.2 mi SSW 19.6 mph - N/A Rain Light Rain
7:55 AM 44.6 °F 36.6 °F 44.6 °F 100% 30.14 in 0.2 mi SSW 19.6 mph - N/A   Drizzle
8:55 AM 44.6 °F 36.4 °F 44.6 °F 100% 30.13 in 0.2 mi SSW 20.7 mph - N/A Fog , Rain Light Rain
9:55 AM 44.2 °F 35.9 °F 44.8 °F 100% 30.13 in 2.0 mi SSW 20.7 mph - N/A Rain Light Rain Showers
10:02 AM 44.6 °F 36.4 °F 44.6 °F 100% 30.12 in 0.5 mi SSW 20.7 mph 27.6 mph N/A Rain Light Rain Showers
10:22 AM 44.6 °F 36.1 °F 44.6 °F 100% 30.12 in 0.2 mi SSW 21.9 mph 27.6 mph N/A Fog , Rain Light Rain Showers
10:55 AM 44.1 °F 35.2 °F 44.2 °F 100% 30.12 in 0.2 mi SSW 23.0 mph - N/A Fog , Rain Light Rain
11:55 AM - - - N/A% 30.12 in 0.2 mi SSW 21.9 mph 27.6 mph 0.00 in Fog , Rain Light Rain
1:55 PM 44.6 °F 36.4 °F 45.1 °F 100% 30.11 in 0.2 mi South 20.7 mph - N/A Fog , Rain Light Rain
2:55 PM - - - N/A% 30.10 in 10.0 mi South 24.2 mph - N/A   Light Drizzle
3:02 PM - - - N/A% 30.10 in 10.0 mi South 23.0 mph - N/A   Mostly Cloudy
3:55 PM 45.5 °F 37.1 °F 45.9 °F 100% 30.09 in 10.0 mi South 23.0 mph 29.9 mph N/A   Overcast
4:02 PM 46.4 °F 38.7 °F 46.4 °F 100% 30.09 in 10.0 mi South 20.7 mph 28.8 mph N/A   Drizzle
4:55 PM 45.9 °F 37.2 °F 45.5 °F 99% 30.09 in 10.0 mi SSW 25.3 mph - N/A   Overcast
5:22 PM 46.4 °F 38.1 °F 44.6 °F 93% 30.08 in 10.0 mi SSW 24.2 mph 29.9 mph N/A Rain Light Rain Showers
5:42 PM 46.4 °F 38.3 °F 46.4 °F 100% 30.08 in 10.0 mi SSW 23.0 mph - N/A   Overcast
6:55 PM 45.3 °F 36.9 °F 45.1 °F 99% 30.08 in 10.0 mi SW 23.0 mph 29.9 mph N/A   Overcast
7:55 PM 44.8 °F 35.5 °F 44.6 °F 99% 30.07 in 8.0 mi SW 26.5 mph 29.9 mph N/A   Overcast
8:55 PM 44.4 °F 35.5 °F 44.6 °F 100% 30.07 in 4.0 mi SSW 24.2 mph - N/A   Mostly Cloudy
9:02 PM 44.6 °F 35.9 °F 44.6 °F 100% 30.06 in 0.8 mi SSW 23.0 mph - N/A   Light Drizzle
9:22 PM 44.6 °F 35.7 °F 44.6 °F 100% 30.06 in 0.2 mi SSW 24.2 mph 29.9 mph N/A Fog Light Drizzle
9:55 PM 44.6 °F 35.5 °F 44.6 °F 100% 29.58 in 0.2 mi SSW 25.3 mph 28.8 mph N/A Fog , Rain Light Rain
10:55 PM 44.2 °F 34.8 °F 44.8 °F 100% 30.06 in 0.2 mi SSW 26.5 mph 32.2 mph N/A Fog , Rain Light Rain
11:55 PM 44.1 °F 34.8 °F 44.4 °F 100% 30.06 in 0.2 mi SSW 25.3 mph - N/A Fog , Rain Light Rain